Location: Poughquag
(41.6090°N, 73.6820°W)
Time: 05:37:07
(UTC-05:00)

BEESAT 2 - Visible Passes

Search period start: 28 November 2023 00:00
Search period end: 08 December 2023 00:00
Orbit: 363 x 389 km, 64.9° (Epoch: 27 November)

Date Brightness Start Highest point End Pass type
(mag) Time Alt. Az. Time Alt. Az. Time Alt. Az.
28 Nov ? 06:13:37 10° SSE 06:15:27 15° ESE 06:17:18 10° ENE visible
30 Nov ? 05:46:42 10° SSE 05:48:57 19° ESE 05:51:13 10° ENE visible
01 Dec ? 06:19:15 10° SSW 06:22:20 86° WNW 06:25:27 10° NNE visible
02 Dec ? 05:18:46 10° S 05:21:15 23° ESE 05:23:46 10° ENE visible
03 Dec ? 05:51:01 10° SW 05:54:03 68° WNW 05:57:09 10° NNE visible
04 Dec ? 04:51:54 26° SE 04:52:20 27° ESE 04:55:01 10° NE visible
04 Dec ? 06:24:47 10° W 06:26:53 17° NW 06:29:00 10° N visible
05 Dec ? 05:25:24 39° N 05:25:24 39° N 05:27:35 10° NNE visible
06 Dec ? 05:57:54 13° NNW 05:57:54 13° NNW 05:58:40 10° N visible
